Other Public Products
Issued by NWS Grand Forks, ND

Home | Current Version | Previous Version | Text Only | Print | Product List | Glossary On
Versions: 1 2 3 4 5 6 7 8 9 10 11 12 13 14 15 16 17 18 19 20 21 22 23 24 25 26 27 28 29 30 31 32 33 34 35 36 37 38 39 40 41 42 43 44 45 46 47 48 49 50
469
FPUS83 KFGF 260310
OPUFGF
PRAIRIE TO PINES WEATHER ROUNDUP
NATIONAL WEATHER SERVICE EASTERN NORTH DAKOTA/GRAND FORKS ND
1000 PM CDT WED MAY 25 2016

 **SATELLITE DATA USED TO AUGMENT SKY COVER AT AUTOMATED STATIONS**
 *****  WEATHER ACROSS EASTERN NORTH DAKOTA  *****

CITY           SKY/WX    TMP DP  RH WIND       PRES   REMARKS
GRAND FORKS    CLOUDY    59  57  93 W10       29.69R
GRAND FORKS AF CLOUDY    58  58 100 NW10      29.70R
GRAND CITY NWS   N/A     57 N/A N/A W10         N/A
BUXTON           N/A     60  60  98 W7          N/A
DEVILS LAKE    CLOUDY    57  55  94 NE3       29.75F
FARGO          CLEAR     60  56  86 SW6       29.73S
WAHPETON ARPT  PTCLDY    63  57  82 CALM      29.74S
$$

 *****  WEATHER ACROSS CENTRAL AND WESTERN NORTH DAKOTA  *****

CITY           SKY/WX    TMP DP  RH WIND       PRES   REMARKS
JAMESTOWN      RAIN      59  57  93 S8        29.75S
BISMARCK       CLOUDY    59  53  80 NW12      29.78S
MINOT          CLOUDY    59  55  87 S5        29.75S
MINOT AFB      MOCLDY    58  55  89 S6        29.74S
GARRISON         N/A     57  52  83 NW14      29.77S
WILLISTON      CLEAR     49  46  90 N5        29.81F
DICKINSON      CLEAR     46  41  82 W5        29.81S
HETTINGER      CLEAR     47  40  76 NW5       29.85R
$$

 *****  OTHER OBSERVATIONS NORTHEAST NORTH DAKOTA  *****

CITY           SKY/WX    TMP DP  RH WIND       PRES   REMARKS
WALHALLA       RAIN      55  55 100 N10       29.73F
LANGDON        CLOUDY    55  55 100 N12       29.74F
CAVALIER       CLOUDY    57  57 100 N10       29.70S FOG
GRAFTON        CLOUDY    59  59 100 NW10G22   29.69S
CANDO          NOT AVBL
FORT TOTTEN      N/A     56  56 100 N2        29.95S
ROLLA          CLOUDY    55  55 100 E10       29.79R
RUGBY          FAIR      54  54 100 E7        29.75S
 ***** THE ABOVE OBSERVATIONS ARE NON NWS ARE NOT QUALITY
        CONTROLLED AND MAY MIS-REPORT RAIN FOR SNOW...
$$

 *****  OTHER OBSERVATIONS SOUTHEAST NORTH DAKOTA *****

CITY           SKY/WX    TMP DP  RH WIND       PRES   REMARKS
COOPERSTOWN    NOT AVBL
VALLEY CITY    LGT RAIN  59  59 100 SW20G28   29.77R
OAKES            N/A    N/A N/A N/A MISG        N/A
GWINNER        CLOUDY    59  55  88 NW17G32   29.80R
SHEYENNE NWR     N/A     60  58  92 E2        29.95
BUFFALO          N/A     60  56  87 W2          N/A
WYNDMERE         N/A    N/A N/A N/A E5          N/A
 ***** THE ABOVE OBSERVATIONS ARE NON NWS ARE NOT QUALITY
       CONTROLLED AND MAY MIS-REPORT RAIN FOR SNOW...
$$

  *****  WEATHER ACROSS NORTHERN MINNESOTA  *****

CITY           SKY/WX    TMP DP  RH WIND       PRES   REMARKS
FLAG ISLAND    RAIN      57  55  94 E14G21    29.79S
WARROAD        RAIN      57  54  88 E18G25    29.73S
ROSEAU         CLOUDY    59  54  82 E14G22    29.70S
HALLOCK        CLOUDY    61  57  88 E8        29.65F FOG
THF RVR FALLS  CLOUDY    61  55  82 S15       29.71R
HALSTAD        NOT AVBL
FOSSTON        CLEAR     57  57 100 S9        29.75R
BAUDETTE       LGT RAIN  59  56  89 E16       29.76S
WASKISH        CLOUDY    59  55  88 SE12G20   29.77R
CROOKSTON      CLOUDY    61  59  94 SW14      29.70R
$$
  *****  WEATHER ACROSS CENTRAL AND WEST MINNESOTA  *****

CITY           SKY/WX    TMP DP  RH WIND       PRES   REMARKS
BEMIDJI        CLOUDY    59  56  88 SE15G21   29.77R
PARK RAPIDS    MOCLDY    61  58  90 SE10      29.78R
WADENA         MOCLDY    61  59  94 E6        29.78R
DETROIT LAKES  CLEAR     61  59  94 S3        29.78S
MOORHEAD       CLEAR     61  59  94 CALM      29.74S
FERGUS FALLS   PTCLDY    63  61  94 E3        29.72S
ELBOW LAKE     FAIR      64  62  92 SE5       29.77R
MORRIS MN      MOCLDY    70  55  60 SW8       29.77R
STAPLES        PTCLDY    57  55  94 E6        29.80S
WHEATON        CLOUDY    68  63  83 E10       29.75F
$$
  *****  WEATHER ELSEWHERE ACROSS MINNESOTA  *****

CITY           SKY/WX    TMP DP  RH WIND       PRES   REMARKS
DULUTH         CLOUDY    47  46  97 E9        29.89R
INTRNTL FALLS  CLOUDY    59  53  80 E5        29.82R
ELY            CLOUDY    57  46  67 SE9G16    29.87F
CLOQUET        CLOUDY    46  45  93 E8        29.88R FOG
BRAINERD       CLOUDY    57  54  89 SE7       29.83R
HIBBING        CLOUDY    52  50  93 SE10      29.86S
ALEXANDRIA     PTCLDY    65  57  75 CALM      29.79R
SAINT CLOUD    CLOUDY    62  60  93 E8        29.82R
MINNEAPOLIS    PTCLDY    70  62  76 E10       29.81R
$$

  *****  WEATHER ACROSS SOUTH DAKOTA  *****

CITY           SKY/WX    TMP DP  RH WIND       PRES   REMARKS
SIOUX FALLS    LGT RAIN  69  61  75 N7        29.82R
BROOKINGS      CLOUDY    64  50  60 NW9       29.86R
WATERTOWN      CLOUDY    66  53  63 S14       29.79F
HURON          CLOUDY    58  54  86 S9        29.79R
SISSETON         N/A     68  52  56 NW6       29.71F
ABERDEEN       CLOUDY    60  51  72 SW9       29.74R
MITCHELL       CLOUDY    67  61  81 N5        29.80R
PIERRE         CLEAR     59  49  69 NW9       29.80R
MOBRIDGE       CLEAR     58  49  72 NW7       29.78R
RAPID CITY     PTCLDY    50  48  93 NW6       29.90R
$$

  *****  SOME WEATHER IN NEARBY STATES *****

CITY           SKY/WX    TMP DP  RH WIND       PRES   REMARKS
GLASGOW MT     CLEAR     55  44  66 N9        29.82S
GREAT FALLS MT CLOUDY    55  45  68 NW12      29.91R
CHEYENNE WY    CLOUDY    54  35  48 N8        30.02R
SCOTTSBLUFF NE CLOUDY    61  44  53 NE12      29.93R
OMAHA NE       PTCLDY    71  66  84 SE7       29.83R
DES MOINES IA  MOCLDY    76  64  66 SE6       29.85S
DAVENPORT IA   CLEAR     71  58  63 S5        29.91R
CHICAGO IL     LGT RAIN  68  65  90 E5        29.94R
EAU CLAIRE WI  FOG       62  62 100 E3        29.84S VSB 3/4
LA CROSSE WI   CLEAR     69  64  84 SE6       29.83S
$$

  *****  SOME NATIONAL WEATHER *****

CITY           SKY/WX    TMP DP  RH WIND       PRES   REMARKS
LA GUARDIA NY  PTCLDY    81  53  37 SW12      30.04S
RALEIGH NC     PTCLDY    69  58  67 CALM      30.17R
ATLANTA GA     PTCLDY    76  56  49 S6        30.20S
NEW ORLEANS LA MOCLDY    79  72  79 SE8       30.13R
OKLAHOMA CITY  PTCLDY    78  74  87 S16G22    29.87R
ALBUQUERQUE NM PTCLDY    74  14  10 SW12      29.96R
SALT LAKE CITY CLOUDY    61  44  53 N7        29.99R
LOS ANGELES CA PTCLDY    60  53  77 W9        30.07S
BOISE ID       CLEAR     68  37  32 W6        29.96S
SEATTLE WA     MOCLDY    58  47  66 W9        30.18S
$$

*** WEATHER ACROSS MANITOBA...SASKATCHEWAN AND ONTARIO ***
                ***ONTARIO***

CITY           SKY/WX    TMP DP  RH WIND       PRES   REMARKS
GERALDTON      CLOUDY    63  43  48 E7        30.03R
THUNDER BAY    NOT AVBL
SIOUX LOOKOUT  CLOUDY    59  54  82 E6        29.90S
TORONTO        CLOUDY    72  57  60 N5        30.04S
BIG TROUT LK   CLEAR     57  48  72 SE6       29.97S
PICKLE LAKE    NOT AVBL
DRYDEN         CLOUDY    59  55  88 E7        29.88R
KENORA         LGT RAIN  59  57  94 SE10G23   29.87R FOG
$$
                *** MANITOBA***

CITY           SKY/WX    TMP DP  RH WIND       PRES   REMARKS
BRANDON        LGT RAIN  55  54  94 E12       29.80R
DAUPHIN        CLOUDY    57  54  88 NE3       29.85S
ISLAND LAKE    NOT AVBL
PILOT MOUND      N/A     54  54 100 E12G18      N/A
THE PAS        PTCLDY    59  46  63 VRB2      29.87R
THOMPSON       PTCLDY    55  48  76 VRB2      29.87S
WINNIPEG       LGT RAIN  57  55  94 E13G23    29.79F
LYNN LAKE      MOCLDY    63  45  51 NW5       29.85R
CHURCHILL      LGT RAIN  36  34  93 SE15      29.96S
GILLAM         MOCLDY    61  46  59 SE5       29.90S
$$
                ***SASKATCHEWAN***

CITY           SKY/WX    TMP DP  RH WIND       PRES   REMARKS
ESTEVAN        LGT RAIN  55  54  94 NE12      29.78S FOG
KINDERSLEY     PTCLDY    57  45  62 E6        29.89R
LLOYDMINSTER   PTCLDY    61  46  59 S9        29.89R
PRINCE ALBERT  PTCLDY    57  46  67 CALM      29.87R
REGINA         LGT RAIN  54  52  94 N9        29.84F
YORKTON        RAIN      55  54  94 SE5       29.88R FC1F1C2F2C3F3C4F4C5F5C6F6C7F7C8F8C9F9CaFaCbFbCcFcCdFdCe!



USA.gov is the U.S. government's official web portal to all federal, state and local government web resources and services.